[[{"header":{"parameterUnit":"m.s-1","parameterCategory":2,"la1":30.2991,"la2":30.254,"lo1":-89.0895,"lo2":-89.0444,"dy":0.0017,"dx":0.0017,"nx":28,"ny":28,"refTime":"2024-06-12T09:00:00:Z","depth":"0","parameterNumber":2,"parameterNumberName":"U-component_of_CURRENTS"},"data":[0,0,0,0,0,0,0,0,0,0,0,0,0,0,0,0,0,0,0,0,0,0,0,0,0,0,0,0,0,0,0,0,0,0,0,0,0,0,0,0,0,0,0,0,0,0,0,0,0,0,0,0,0,0,0,0,0,0,0.2266,0.2267,0,0.2309,0.231,0.2311,0.2343,0.2343,0.2343,0.2343,0.2381,0.2382,0.2383,0,0,0,0,0,0,0,0,0,0,0,0,0,0.2255,0.2255,0.2266,0.2267,0.2267,0.2309,0.231,0.2311,0.2343,0.2343,0.2343,0.2343,0.2381,0.2382,0.2383,0,0,0,0,0,0,0,0,0,0,0,0,0,0.2277,0.2255,0.2266,0.2287,0.2289,0.2309,0.231,0.2311,0.2343,0.2343,0.2343,0.2343,0.2381,0.2382,0.2383,0.2386,0,0,0.2387,0.2388,0,0,0,0,0,0,0,0,0.2275,0.2277,0.2284,0.2286,0.2288,0.232,0.232,0.2335,0.2343,0.2324,0.2343,0.2344,0.2359,0.2362,0.2372,0.2388,0.239,0.2387,0.2388,0.2388,0.2389,0,0,0,0,0,0,0,0.2274,0.2276,0.2285,0.2284,0.2287,0.2309,0.2312,0.2323,0.2341,0.2326,0.2328,0.233,0.2361,0.237,0.2373,0.239,0.2387,0.2388,0.2389,0.239,0.2423,0.2423,0,0,0,0,0,0,0.2263,0.2274,0.2283,0.2286,0.2281,0.2309,0.2313,0.2311,0.2341,0.2345,0.233,0.2332,0.2368,0.2371,0.2374,0.2401,0.2388,0.239,0.239,0.2422,0.2423,0.2423,0,0,0,0,0,0,0.2263,0.2263,0.2282,0.228,0.2284,0.2308,0.2306,0.2311,0.232,0.2344,0.2349,0.2334,0.2368,0.2372,0.2387,0.2402,0.239,0.2391,0.2422,0.2422,0.2423,0.2441,0,0,0,0,0,0,0.2262,0.2263,0.2262,0.2279,0.2284,0.2291,0.2306,0.2312,0.2321,0.2323,0.2348,0.2352,0.2369,0.2385,0.2388,0.2404,0.2392,0.2422,0.2422,0.2423,0.2441,0.2442,0.2443,0,0,0,0,0,0.2261,0.2253,0.2262,0.2263,0.228,0.229,0.2295,0.2315,0.2321,0.2324,0.2343,0.2352,0.2389,0.2386,0.239,0.2406,0.2422,0.2422,0.2423,0.244,0.2442,0.2443,0,0,0,0,0,0,0.2238,0.2256,0.2266,0.2261,0.2275,0.2295,0.2296,0.2311,0.2329,0.233,0.2353,0.2358,0.2377,0.2383,0.238,0.2414,0.2407,0.2408,0.2418,0.242,0.2422,0.237,0.2393,0,0,0,0,0,0.2234,0.2239,0.2255,0.2252,0.2254,0.2275,0.2282,0.2296,0.2312,0.2321,0.234,0.2359,0.2381,0.2393,0.2407,0.2425,0.2424,0.2436,0.2437,0.2439,0.2398,0.2435,0.2436,0.2423,0.2423,0.2423,0,0,0.2225,0.2234,0.2237,0.2249,0.2258,0.2261,0.228,0.2285,0.2286,0.2321,0.2328,0.2362,0.2385,0.241,0.2419,0.2418,0.2446,0.2439,0.244,0.2398,0.2435,0.2436,0.2437,0.2424,0.2424,0.2424,0,0,0.2206,0.2213,0.2211,0.2222,0.2236,0.2249,0.2248,0.2269,0.2273,0.2288,0.2319,0.2353,0.2379,0.2407,0.2423,0.2434,0.245,0.245,0.2421,0.2459,0.246,0.2461,0.2479,0.2481,0.2455,0.2455,0.2455,0,0.2186,0.2195,0.2212,0.2211,0.2214,0.2239,0.2234,0.2241,0.2268,0.2263,0.2285,0.2338,0.2371,0.2401,0.2413,0.2437,0.2452,0.242,0.2461,0.2462,0.2462,0.248,0.2482,0.2456,0.2456,0.2456,0.2455,0,0.2175,0.2181,0.2174,0.2186,0.219,0.219,0.22,0.2201,0.2214,0.2228,0.2251,0.2308,0.2336,0.2373,0.2396,0.2425,0.2433,0.2461,0.2458,0.2465,0.2483,0.2485,0.2457,0.2457,0.2457,0.2456,0,0,0.2108,0.2159,0.2151,0.2157,0.2177,0.217,0.2163,0.2159,0.2149,0.2185,0.2186,0.2245,0.2278,0.2295,0.2354,0.239,0.2434,0.2423,0.2425,0.244,0.2506,0.2465,0.2463,0.2482,0.2482,0.2482,0.2524,0,0.2085,0.209,0.212,0.2111,0.2108,0.2126,0.2116,0.2116,0.2127,0.2137,0.2183,0.2216,0.225,0.2291,0.2327,0.2417,0.2436,0.2418,0.2494,0.2494,0.2458,0.2463,0.2308,0.2327,0.2526,0.2526,0.2526,0,0.204,0.206,0.2051,0.2073,0.2069,0.2068,0.2047,0.205,0.2062,0.2076,0.2106,0.215,0.2211,0.2248,0.2349,0.2342,0.2396,0.2456,0.2461,0.2402,0.2455,0.2348,0.2323,0.2221,0.2529,0.2529,0.2529,0,0.1957,0.1992,0.1985,0.1992,0.2024,0.2009,0.2022,0.2023,0.2016,0.2048,0.2063,0.2122,0.2179,0.2249,0.2348,0.2363,0.2452,0.2501,0.2497,0.2496,0.236,0.2346,0.2234,0.2531,0.253,0.253,0.253,0,0.189,0.1877,0.1952,0.1938,0.1925,0.1963,0.1938,0.1951,0.1979,0.1974,0.2037,0.2056,0.2183,0.2248,0.2329,0.2406,0.2435,0.2464,0.2497,0.2364,0.235,0.2252,0.2247,0.2532,0.2532,0.2531,0.2531,0,0.1768,0.1817,0.1813,0.1865,0.1878,0.186,0.1894,0.1881,0.1925,0.1929,0.1944,0.2021,0.2108,0.2207,0.2338,0.2385,0.2388,0.2477,0.2298,0.2308,0.2216,0.2219,0.2099,0.206,0.2489,0.2488,0.2487,0,0.1703,0.1698,0.1747,0.1742,0.1761,0.1768,0.1768,0.183,0.1833,0.1897,0.1896,0.198,0.2018,0.2176,0.2267,0.2371,0.2322,0.2287,0.2278,0.2155,0.2185,0.2138,0.2111,0.2119,0.2115,0.2112,0.211,0,0.16,0.162,0.1627,0.1631,0.1634,0.1638,0.1663,0.1667,0.1737,0.1751,0.1781,0.1823,0.1961,0.1989,0.2123,0.2185,0.2141,0.2229,0.2145,0.1898,0.1794,0.179,0.2148,0.2083,0.2086,0.2088,0.2089,0.209,0.1526,0.1508,0.1531,0.151,0.1521,0.1512,0.1485,0.1522,0.1526,0.1521,0.1624,0.1613,0.1685,0.1855,0.1932,0.1897,0.1989,0.1838,0.1859,0.1828,0.174,0.2025,0.1978,0.198,0.1982,0.1983,0.1985,0,0.1434,0.1425,0.1413,0.1396,0.1365,0.1403,0.1407,0.1366,0.1337,0.1343,0.1341,0.1314,0.1344,0.1443,0.1498,0.1498,0.1492,0.1463,0.1331,0.1338,0.1606,0.1536,0.1336,0.1336,0.1336,0.1336,0.1337,0.1337,0.1388,0.134,0.1327,0.125,0.1235,0.1174,0.1155,0.1109,0.1089,0.1002,0.0943,0.0964,0.106,0.1092,0.11,0.1119,0.1078,0.102,0.1105,0.1246,0.1281,0.1315,0.1242,0.0984,0.0984,0.0724,0.0722,0.072]},{"header":{"parameterUnit":"m.s-1","parameterCategory":2,"la1":30.2991,"la2":30.254,"lo1":-89.0895,"lo2":-89.0444,"dy":0.0017,"dx":0.0017,"nx":28,"ny":28,"refTime":"2024-06-12T09:00:00:Z","depth":"0","parameterNumber":3,"parameterNumberName":"V-component_of_CURRENTS"},"data":[0,0,0,0,0,0,0,0,0,0,0,0,0,0,0,0,0,0,0,0,0,0,0,0,0,0,0,0,0,0,0,0,0,0,0,0,0,0,0,0,0,0,0,0,0,0,0,0,0,0,0,0,0,0,0,0,0,0,-0.0824,-0.0825,0,-0.0901,-0.0902,-0.0903,-0.0943,-0.0943,-0.0943,-0.0943,-0.0976,-0.0977,-0.0977,0,0,0,0,0,0,0,0,0,0,0,0,0,-0.0748,-0.0749,-0.0824,-0.0825,-0.0826,-0.0901,-0.0902,-0.0903,-0.0943,-0.0943,-0.0943,-0.0943,-0.0975,-0.0976,-0.0978,0,0,0,0,0,0,0,0,0,0,0,0,0,-0.0799,-0.0749,-0.0824,-0.0854,-0.0858,-0.09,-0.0902,-0.0903,-0.0943,-0.0943,-0.0943,-0.0943,-0.0975,-0.0976,-0.0978,-0.0986,0,0,-0.0982,-0.0982,0,0,0,0,0,0,0,0,-0.0796,-0.0802,-0.0849,-0.0852,-0.0856,-0.0912,-0.0887,-0.0928,-0.0943,-0.0911,-0.0943,-0.0943,-0.095,-0.0953,-0.0969,-0.0988,-0.0989,-0.0982,-0.0983,-0.0983,-0.0984,0,0,0,0,0,0,0,-0.0792,-0.0799,-0.0855,-0.085,-0.0854,-0.0876,-0.0883,-0.0895,-0.0929,-0.0914,-0.0917,-0.0924,-0.0951,-0.0968,-0.097,-0.099,-0.0982,-0.0983,-0.0984,-0.0984,-0.1042,-0.1043,0,0,0,0,0,0,-0.078,-0.0795,-0.0853,-0.0857,-0.0825,-0.0877,-0.0885,-0.0894,-0.093,-0.0936,-0.0924,-0.0926,-0.0966,-0.0969,-0.0971,-0.0983,-0.0983,-0.0984,-0.0985,-0.1042,-0.1043,-0.1043,0,0,0,0,0,0,-0.0778,-0.0784,-0.085,-0.0827,-0.0837,-0.0878,-0.0889,-0.0896,-0.0915,-0.0938,-0.0943,-0.0936,-0.0966,-0.097,-0.0991,-0.0984,-0.0985,-0.0986,-0.1041,-0.1042,-0.1043,-0.1006,0,0,0,0,0,0,-0.0775,-0.0783,-0.0784,-0.0827,-0.0838,-0.0875,-0.0889,-0.0897,-0.0919,-0.0922,-0.095,-0.0953,-0.0966,-0.0989,-0.0992,-0.0986,-0.0987,-0.104,-0.1041,-0.1043,-0.1006,-0.1006,-0.1005,0,0,0,0,0,-0.0772,-0.0775,-0.0783,-0.079,-0.0838,-0.0875,-0.0883,-0.0913,-0.092,-0.093,-0.0952,-0.0952,-0.1,-0.099,-0.0994,-0.0988,-0.1039,-0.1041,-0.1043,-0.1007,-0.1006,-0.1005,0,0,0,0,0,0,-0.0732,-0.0781,-0.0791,-0.0805,-0.0836,-0.0882,-0.0891,-0.0913,-0.094,-0.0939,-0.0961,-0.0966,-0.0987,-0.0997,-0.0986,-0.1013,-0.102,-0.1023,-0.0992,-0.0991,-0.0991,-0.0952,-0.0988,0,0,0,0,0,-0.0725,-0.0749,-0.0788,-0.0799,-0.0811,-0.085,-0.0868,-0.0889,-0.0919,-0.0932,-0.0954,-0.0976,-0.0997,-0.1,-0.1026,-0.1032,-0.1034,-0.1035,-0.1034,-0.1033,-0.1007,-0.1041,-0.1041,-0.1049,-0.1049,-0.1049,0,0,-0.0715,-0.0742,-0.0756,-0.0794,-0.0818,-0.0837,-0.0861,-0.0887,-0.0894,-0.0929,-0.0945,-0.0978,-0.1003,-0.102,-0.1028,-0.1023,-0.1028,-0.1035,-0.1034,-0.1008,-0.1043,-0.1042,-0.1041,-0.105,-0.105,-0.105,0,0,-0.0703,-0.0726,-0.0739,-0.0767,-0.0802,-0.0827,-0.0833,-0.0878,-0.0886,-0.0912,-0.0939,-0.0964,-0.1,-0.1011,-0.1021,-0.1031,-0.1034,-0.1048,-0.0998,-0.1032,-0.1031,-0.103,-0.1008,-0.1006,-0.1036,-0.1036,-0.1036,0,-0.0667,-0.0706,-0.0746,-0.0762,-0.0778,-0.0819,-0.0827,-0.0845,-0.0891,-0.0882,-0.0911,-0.0966,-0.099,-0.0994,-0.0999,-0.1025,-0.1031,-0.0995,-0.1029,-0.1028,-0.1028,-0.1006,-0.1003,-0.1034,-0.1034,-0.1034,-0.1035,0,-0.0684,-0.0701,-0.0709,-0.0744,-0.0765,-0.0783,-0.081,-0.082,-0.0839,-0.0852,-0.087,-0.0921,-0.0942,-0.0966,-0.0981,-0.0987,-0.0987,-0.1033,-0.1022,-0.1024,-0.1001,-0.0999,-0.1032,-0.1032,-0.1033,-0.1033,0,0,-0.0583,-0.0697,-0.0685,-0.0705,-0.0757,-0.0768,-0.0771,-0.0774,-0.0754,-0.0805,-0.0792,-0.0841,-0.0863,-0.0876,-0.0914,-0.0937,-0.0938,-0.0972,-0.0974,-0.0932,-0.0973,-0.0907,-0.0899,-0.0999,-0.0999,-0.1,-0.0949,0,-0.0557,-0.0604,-0.066,-0.0673,-0.0691,-0.0728,-0.0725,-0.073,-0.0736,-0.0735,-0.0771,-0.0788,-0.083,-0.0847,-0.0875,-0.0933,-0.0935,-0.0944,-0.0991,-0.099,-0.092,-0.0896,-0.082,-0.0764,-0.0947,-0.0947,-0.0946,0,-0.051,-0.056,-0.0588,-0.064,-0.0643,-0.0653,-0.0637,-0.0644,-0.0641,-0.0649,-0.0665,-0.07,-0.0724,-0.0786,-0.0842,-0.0849,-0.0889,-0.0935,-0.0936,-0.088,-0.0922,-0.08,-0.0754,-0.0766,-0.0944,-0.0944,-0.0944,0,-0.0407,-0.0474,-0.0502,-0.0526,-0.0601,-0.059,-0.0608,-0.06,-0.0582,-0.059,-0.0588,-0.0627,-0.0653,-0.0724,-0.0789,-0.0825,-0.0852,-0.0922,-0.0887,-0.0882,-0.0824,-0.0813,-0.0779,-0.0951,-0.0951,-0.0951,-0.0951,0,-0.0339,-0.0338,-0.0459,-0.0474,-0.0461,-0.0528,-0.0489,-0.0499,-0.0509,-0.0476,-0.0537,-0.0533,-0.0647,-0.0674,-0.0751,-0.078,-0.0816,-0.0847,-0.0864,-0.0807,-0.0796,-0.0811,-0.0833,-0.0949,-0.095,-0.095,-0.095,0,-0.0201,-0.0292,-0.0312,-0.0402,-0.0417,-0.0394,-0.0425,-0.0401,-0.0426,-0.0393,-0.0398,-0.0451,-0.0489,-0.0567,-0.0663,-0.071,-0.0741,-0.0769,-0.0656,-0.0661,-0.065,-0.0672,-0.0608,-0.0597,-0.0722,-0.072,-0.0719,0,-0.0144,-0.0156,-0.0238,-0.024,-0.0275,-0.0278,-0.0278,-0.0332,-0.0316,-0.0334,-0.0315,-0.0344,-0.0343,-0.0428,-0.0511,-0.0578,-0.0644,-0.056,-0.0622,-0.0599,-0.0639,-0.0651,-0.065,-0.0525,-0.0522,-0.052,-0.0518,0,-0.0028,-0.0056,-0.009,-0.0114,-0.0121,-0.013,-0.0144,-0.0128,-0.018,-0.016,-0.0141,-0.0145,-0.0214,-0.0247,-0.0334,-0.0399,-0.0517,-0.051,-0.0539,-0.0499,-0.0459,-0.0473,-0.0577,-0.0495,-0.0498,-0.0499,-0.05,-0.0501,0.008,0.0085,0.0026,0.0019,0.001,0.0008,0.002,0.0003,0.0028,0.0041,0.0019,0.0027,-0.0032,-0.0145,-0.0216,-0.0294,-0.0352,-0.034,-0.037,-0.0384,-0.0364,-0.0376,-0.0293,-0.0294,-0.0295,-0.0296,-0.0297,0,0.018,0.0154,0.0154,0.0125,0.0132,0.0094,0.0096,0.0102,0.0139,0.0159,0.0185,0.0195,0.0138,0.0015,-0.0091,-0.0148,-0.0195,-0.0195,-0.0216,-0.0228,-0.0278,-0.0261,-0.0103,-0.0103,-0.0103,-0.0103,-0.0103,-0.0103,0.0225,0.0229,0.0198,0.022,0.0211,0.0215,0.0219,0.0238,0.0251,0.0294,0.0312,0.031,0.0253,0.0094,-0.0036,-0.0082,-0.0145,-0.011,-0.0182,-0.0245,-0.0263,-0.0279,-0.027,-0.0116,-0.0116,-0.0099,-0.0099,-0.0099]}],[{"header":{"parameterUnit":"m.s-1","parameterCategory":2,"la1":30.2991,"la2":30.254,"lo1":-89.0895,"lo2":-89.0444,"dy":0.0017,"dx":0.0017,"nx":28,"ny":28,"refTime":"2024-06-12T09:00:00:Z","depth":"2","parameterNumber":2,"parameterNumberName":"U-component_of_CURRENTS"},"data":[0,0,0,0,0,0,0,0,0,0,0,0,0,0,0,0,0,0,0,0,0,0,0,0,0,0,0,0,0,0,0,0,0,0,0,0,0,0,0,0,0,0,0,0,0,0,0,0,0,0,0,0,0,0,0,0,0,0,0.1333,0.1332,0,0.1217,0.1216,0.1214,0.12,0.1201,0.1203,0.1204,0.1226,0.1225,0.1224,0,0,0,0,0,0,0,0,0,0,0,0,0,0.1458,0.1456,0.1334,0.1332,0.1331,0.1218,0.1216,0.1214,0.12,0.1201,0.1203,0.1205,0.1226,0.1225,0.1224,0,0,0,0,0,0,0,0,0,0,0,0,0,0.1376,0.1455,0.1334,0.1313,0.131,0.1218,0.1216,0.1213,0.1199,0.1201,0.1204,0.1206,0.1226,0.1225,0.1224,0.1173,0,0,0.122,0.122,0,0,0,0,0,0,0,0,0.1381,0.1371,0.1317,0.1314,0.1311,0.1229,0.1268,0.1208,0.1199,0.1237,0.1204,0.1207,0.124,0.1238,0.1204,0.1174,0.1175,0.122,0.1219,0.1219,0.1219,0,0,0,0,0,0,0,0.1387,0.1375,0.1284,0.1316,0.1312,0.1281,0.1272,0.1255,0.1228,0.1234,0.1234,0.1226,0.1239,0.1205,0.1205,0.1175,0.122,0.1219,0.1218,0.1218,0.1185,0.1184,0,0,0,0,0,0,0.141,0.1381,0.1288,0.1281,0.1356,0.1278,0.1267,0.125,0.1225,0.1223,0.1224,0.1226,0.1206,0.1206,0.1206,0.1251,0.1219,0.1218,0.1217,0.1185,0.1185,0.1184,0,0,0,0,0,0,0.1413,0.1402,0.1292,0.1332,0.1317,0.1274,0.1254,0.1247,0.1237,0.1216,0.1217,0.1226,0.1208,0.1208,0.1218,0.1248,0.1217,0.1216,0.1185,0.1185,0.1184,0.1273,0,0,0,0,0,0,0.1416,0.1403,0.1436,0.1333,0.1315,0.1256,0.1252,0.1243,0.1229,0.123,0.1218,0.122,0.1209,0.122,0.1217,0.1246,0.1215,0.1185,0.1185,0.1185,0.1271,0.1276,0.1281,0,0,0,0,0,0.1421,0.1433,0.1437,0.1428,0.1348,0.1256,0.1244,0.1218,0.1227,0.1219,0.1222,0.1222,0.1216,0.1219,0.1216,0.1245,0.1185,0.1185,0.1185,0.1268,0.1275,0.1281,0,0,0,0,0,0,0.1497,0.143,0.1433,0.1426,0.1363,0.1256,0.1253,0.1228,0.1214,0.1243,0.1219,0.122,0.1215,0.1218,0.1222,0.1229,0.12,0.1199,0.1265,0.1271,0.1276,0.1301,0.1214,0,0,0,0,0,0.1531,0.1521,0.1445,0.1436,0.1413,0.1338,0.1314,0.1294,0.1251,0.1247,0.1241,0.1236,0.1201,0.1233,0.1189,0.1223,0.1222,0.1235,0.1241,0.1245,0.126,0.123,0.1235,0.1183,0.1183,0.1183,0,0,0.155,0.1518,0.1512,0.1453,0.1402,0.1366,0.1327,0.1292,0.1282,0.1255,0.1267,0.123,0.1196,0.1204,0.121,0.1233,0.1273,0.1245,0.125,0.1262,0.123,0.1236,0.124,0.1183,0.1183,0.1183,0,0,0.1559,0.1557,0.1552,0.1506,0.1458,0.1411,0.1407,0.1334,0.1332,0.1319,0.1287,0.129,0.1255,0.1255,0.1241,0.1254,0.1257,0.124,0.1347,0.1318,0.1323,0.1327,0.1402,0.1412,0.1298,0.1298,0.1298,0,0.1585,0.1578,0.1534,0.151,0.1486,0.1434,0.1414,0.1387,0.1339,0.1337,0.1343,0.1277,0.1275,0.1271,0.1298,0.1271,0.1281,0.1334,0.1328,0.1331,0.1334,0.1409,0.1418,0.1302,0.1302,0.1301,0.1301,0,0.1583,0.1588,0.1567,0.1533,0.1503,0.147,0.1428,0.1426,0.1422,0.1391,0.1374,0.1361,0.1334,0.1339,0.1338,0.1359,0.1372,0.1296,0.1322,0.1345,0.1423,0.1431,0.1308,0.1307,0.1305,0.1304,0,0,0.1564,0.1571,0.1562,0.1562,0.152,0.1473,0.1481,0.1445,0.1451,0.1436,0.1443,0.1418,0.1415,0.1401,0.14,0.1438,0.1511,0.1418,0.1414,0.1513,0.1527,0.1487,0.1493,0.1425,0.1426,0.1426,0.1601,0,0.1563,0.1559,0.1562,0.1541,0.1524,0.1501,0.1491,0.147,0.1471,0.1476,0.1471,0.1462,0.1434,0.1462,0.1475,0.1472,0.1525,0.1475,0.1471,0.1474,0.1449,0.1496,0.1297,0.1428,0.1609,0.1611,0.1612,0,0.1532,0.1549,0.1545,0.1547,0.1535,0.1527,0.1514,0.1505,0.1505,0.1512,0.1518,0.1509,0.1569,0.153,0.1562,0.153,0.1546,0.1559,0.1562,0.1494,0.1445,0.1416,0.1436,0.1625,0.1624,0.1623,0.1622,0,0.1492,0.1512,0.1521,0.1511,0.151,0.1519,0.1522,0.1516,0.151,0.1562,0.1574,0.1595,0.163,0.1617,0.1662,0.1614,0.171,0.1623,0.161,0.1612,0.1426,0.1409,0.1634,0.1634,0.1634,0.1633,0.1633,0,0.1435,0.1439,0.1513,0.1498,0.1503,0.1516,0.1522,0.1524,0.1555,0.1542,0.1593,0.1603,0.1645,0.1697,0.1705,0.1713,0.1729,0.1653,0.1637,0.1459,0.1443,0.1571,0.1561,0.164,0.1639,0.1637,0.1636,0,0.134,0.1387,0.1396,0.1453,0.1467,0.1463,0.1501,0.1506,0.1547,0.1552,0.1577,0.1638,0.1697,0.1764,0.1816,0.1772,0.1793,0.1789,0.1647,0.1608,0.1719,0.1712,0.1785,0.1785,0.1785,0.1784,0.1784,0,0.1309,0.13,0.1348,0.1356,0.1383,0.1411,0.1414,0.1472,0.1481,0.1538,0.1525,0.1639,0.1635,0.1747,0.1748,0.1797,0.1824,0.1653,0.1483,0.1749,0.1727,0.172,0.1713,0.1323,0.1319,0.1316,0.1313,0,0.1247,0.1248,0.1254,0.1264,0.1284,0.1304,0.134,0.1339,0.1391,0.1398,0.1411,0.1439,0.154,0.1492,0.1604,0.1585,0.1624,0.1585,0.1875,0.1297,0.132,0.1296,0.1303,0.1284,0.1287,0.1289,0.1291,0.1292,0.1206,0.1187,0.118,0.1164,0.1189,0.1188,0.1171,0.12,0.1181,0.115,0.1244,0.12,0.1269,0.1276,0.1306,0.1361,0.1446,0.136,0.1367,0.1378,0.1274,0.1291,0.124,0.1242,0.1245,0.1247,0.1248,0,0.1132,0.1101,0.1092,0.1071,0.1051,0.1095,0.1095,0.1053,0.0986,0.0973,0.0952,0.0862,0.084,0.0951,0.0961,0.1013,0.0979,0.0993,0.0904,0.0932,0.0957,0.0829,0.0679,0.0678,0.0677,0.0676,0,0,0.109,0.103,0.1002,0.0932,0.0928,0.0881,0.0863,0.0794,0.0759,0.0662,0.0607,0.0644,0.0778,0.0642,0.0696,0.068,0.0788,0.0653,0.1095,0.1006,0.103,0.1148,0.098,0,0,0,0,0]},{"header":{"parameterUnit":"m.s-1","parameterCategory":2,"la1":30.2991,"la2":30.254,"lo1":-89.0895,"lo2":-89.0444,"dy":0.0017,"dx":0.0017,"nx":28,"ny":28,"refTime":"2024-06-12T09:00:00:Z","depth":"2","parameterNumber":3,"parameterNumberName":"V-component_of_CURRENTS"},"data":[0,0,0,0,0,0,0,0,0,0,0,0,0,0,0,0,0,0,0,0,0,0,0,0,0,0,0,0,0,0,0,0,0,0,0,0,0,0,0,0,0,0,0,0,0,0,0,0,0,0,0,0,0,0,0,0,0,0,0.0118,0.012,0,0.0302,0.0304,0.0306,0.0296,0.0293,0.0291,0.0288,0.0062,0.0058,0.0055,0,0,0,0,0,0,0,0,0,0,0,0,0,-0.0,0.0001,0.0117,0.012,0.0122,0.0302,0.0304,0.0307,0.0297,0.0293,0.029,0.0287,0.0063,0.0059,0.0054,0,0,0,0,0,0,0,0,0,0,0,0,0,0.0104,0.0001,0.0117,0.0139,0.0142,0.0301,0.0304,0.0308,0.0297,0.0293,0.0289,0.0286,0.0064,0.0059,0.0054,0.0101,0,0,0.0038,0.0035,0,0,0,0,0,0,0,0,0.0097,0.0108,0.0133,0.0137,0.0142,0.0272,0.018,0.0218,0.0298,0.0238,0.0288,0.0284,0.0097,0.0089,0.0138,0.009,0.0081,0.0037,0.0034,0.0032,0.003,0,0,0,0,0,0,0,0.009,0.0101,0.019,0.0136,0.0141,0.0223,0.0231,0.019,0.018,0.0243,0.0243,0.0265,0.0096,0.0144,0.0131,0.0077,0.0037,0.0033,0.0029,0.0027,-0.0056,-0.0055,0,0,0,0,0,0,0.0059,0.0094,0.0185,0.0196,0.011,0.0227,0.0236,0.0234,0.0189,0.0182,0.0268,0.0264,0.0155,0.0138,0.0123,0.0029,0.0032,0.0027,0.0024,-0.0057,-0.0056,-0.0055,0,0,0,0,0,0,0.0056,0.0065,0.0177,0.0151,0.017,0.0231,0.0231,0.024,0.0242,0.0213,0.0197,0.0254,0.0151,0.013,0.0055,0.0024,0.0024,0.0019,-0.0058,-0.0057,-0.0055,-0.0068,0,0,0,0,0,0,0.0051,0.0062,0.0022,0.0147,0.017,0.0237,0.0235,0.0247,0.0264,0.0259,0.0196,0.0175,0.0146,0.0064,0.005,0.0016,0.0015,-0.0059,-0.0057,-0.0056,-0.0069,-0.0067,-0.0066,0,0,0,0,0,0.0046,0.0035,0.0019,0.0029,0.0122,0.0238,0.0257,0.0289,0.0267,0.0274,0.0227,0.0174,0.0066,0.006,0.0044,0.0008,-0.006,-0.0058,-0.0056,-0.007,-0.0068,-0.0066,0,0,0,0,0,0,-0.0017,0.0037,0.0021,0.0026,0.0099,0.0234,0.0255,0.0273,0.0259,0.0212,0.018,0.0157,0.0102,0.0063,0.0058,-0.0002,-0.0003,-0.0004,-0.0008,-0.0006,-0.0005,-0.001,0.0011,0,0,0,0,0,-0.0055,-0.0061,0.002,0.0028,0.0058,0.0144,0.0182,0.0194,0.0222,0.0213,0.0169,0.0123,0.0117,0.0053,0.0046,-0.0019,-0.0027,-0.0045,-0.0043,-0.0042,-0.0052,-0.0038,-0.0037,-0.0047,-0.0047,-0.0047,0,0,-0.0065,-0.0042,-0.0042,0.0012,0.0076,0.0107,0.0157,0.0202,0.0198,0.0181,0.0127,0.0131,0.0115,0.0077,0.0042,0.0012,-0.0048,-0.0039,-0.0039,-0.0049,-0.0035,-0.0035,-0.0034,-0.0046,-0.0046,-0.0046,0,0,-0.0068,-0.0075,-0.0087,-0.0036,0.0017,0.0065,0.0062,0.0139,0.0135,0.0105,0.0118,0.0098,0.0039,0.0047,0.0041,0.0041,-0.0006,0.0026,-0.0026,-0.0011,-0.0011,-0.0011,-0.0048,-0.0051,-0.0016,-0.0016,-0.0016,0,-0.0084,-0.0103,-0.006,-0.0047,-0.0015,0.0032,0.0042,0.0069,0.0093,0.01,0.0057,0.0076,0.0036,0.0053,0.0044,0.0038,0.0023,-0.0039,-0.0012,-0.0012,-0.0011,-0.0049,-0.0052,-0.0016,-0.0016,-0.0016,-0.0016,0,-0.0092,-0.0114,-0.0089,-0.009,-0.0058,-0.0022,0.0011,0.0001,-0.0019,0.0017,0.0023,0.0016,0.0021,0.0017,0.0007,0.001,-0.0009,0.0021,-0.0024,-0.0011,-0.0052,-0.0055,-0.0017,-0.0016,-0.0016,-0.0016,0,0,-0.006,-0.0099,-0.009,-0.0105,-0.0084,-0.0035,-0.0064,-0.0024,-0.003,-0.0034,-0.0023,-0.0013,0.0002,0.0,0.0009,-0.0009,-0.004,-0.0026,-0.0025,-0.0078,-0.0055,-0.0024,-0.0025,-0.0011,-0.0011,-0.0011,-0.0096,0,-0.0064,-0.0091,-0.0109,-0.0111,-0.0103,-0.0088,-0.0084,-0.0065,-0.0079,-0.0071,-0.0036,-0.0023,-0.0007,-0.0026,-0.0027,-0.0013,-0.0045,-0.0023,-0.0047,-0.0049,-0.0033,-0.0024,0.0002,-0.0066,-0.0099,-0.0099,-0.0099,0,-0.0035,-0.0076,-0.01,-0.0118,-0.0106,-0.0115,-0.0106,-0.0102,-0.0077,-0.0078,-0.0062,-0.0052,-0.0047,-0.0052,-0.0042,-0.0033,-0.006,-0.0062,-0.0065,-0.0032,-0.0021,-0.0075,-0.007,-0.0105,-0.0104,-0.0104,-0.0103,0,0.001,-0.0033,-0.0067,-0.0063,-0.009,-0.0103,-0.0113,-0.01,-0.0075,-0.0093,-0.0092,-0.0072,-0.0074,-0.0075,-0.0104,-0.0086,-0.0114,-0.0079,-0.0073,-0.0074,-0.0054,-0.0051,-0.0089,-0.0089,-0.0089,-0.0089,-0.0088,0,0.0063,0.0046,-0.0053,-0.0058,-0.006,-0.0089,-0.0085,-0.0083,-0.0085,-0.0036,-0.0083,-0.0061,-0.0083,-0.0106,-0.0124,-0.0114,-0.0127,-0.0086,-0.0082,-0.0059,-0.0056,-0.008,-0.0078,-0.0092,-0.0091,-0.0091,-0.009,0,0.0155,0.0087,0.0062,-0.0018,-0.003,-0.0021,-0.0044,-0.0041,-0.0052,-0.0016,-0.0022,-0.0051,-0.0065,-0.0107,-0.0138,-0.013,-0.0139,-0.0143,-0.0145,-0.0137,-0.0113,-0.011,-0.013,-0.013,-0.0129,-0.0129,-0.0128,0,0.0177,0.0175,0.011,0.0101,0.0061,0.0044,0.0046,0.0013,0.0018,0.0019,0.0055,0.0001,0.0021,-0.0034,-0.0069,-0.0112,-0.0127,-0.0131,-0.0061,-0.0117,-0.0112,-0.011,-0.0108,-0.0068,-0.0067,-0.0066,-0.0066,0,0.0235,0.0232,0.0203,0.0181,0.0162,0.0153,0.013,0.0151,0.0134,0.0154,0.0181,0.017,0.0112,0.0083,-0.0016,-0.0031,-0.0115,-0.0113,-0.0172,-0.004,-0.0058,-0.0052,-0.0053,-0.0059,-0.006,-0.006,-0.0061,-0.0061,0.0292,0.0298,0.0273,0.0265,0.0251,0.0249,0.0252,0.0239,0.0278,0.0295,0.0292,0.0282,0.0206,0.0125,0.0055,-0.004,-0.0018,-0.0044,-0.0047,-0.005,-0.0006,-0.0019,-0.0009,-0.001,-0.001,-0.001,-0.0011,0,0.0352,0.0346,0.0343,0.0325,0.0325,0.0297,0.0307,0.0307,0.0351,0.0361,0.0381,0.0334,0.0288,0.0181,0.007,0.0019,0.0003,-0.0011,-0.002,-0.0025,-0.0029,0.0015,0.0017,0.0017,0.0016,0.0016,0,0,0.0378,0.0387,0.0373,0.0382,0.0372,0.0371,0.0377,0.0389,0.0398,0.0414,0.0401,0.0394,0.0299,0.0224,0.0146,0.0072,0.0032,0.0059,0.0049,0.0045,0.004,-0.003,0.0037,0,0,0,0,0]}],[{"header":{"parameterUnit":"m.s-1","parameterCategory":2,"la1":30.2991,"la2":30.254,"lo1":-89.0895,"lo2":-89.0444,"dy":0.0017,"dx":0.0017,"nx":28,"ny":28,"refTime":"2024-06-12T09:00:00:Z","depth":"4","parameterNumber":2,"parameterNumberName":"U-component_of_CURRENTS"},"data":[0,0,0,0,0,0,0,0,0,0,0,0,0,0,0,0,0,0,0,0,0,0,0,0,0,0,0,0,0,0,0,0,0,0,0,0,0,0,0,0,0,0,0,0,0,0,0,0,0,0,0,0,0,0,0,0,0,0,-0.0383,-0.0384,0,-0.0416,-0.0417,-0.0418,-0.0415,-0.0414,-0.0413,-0.0413,-0.0412,-0.0413,-0.0413,0,0,0,0,0,0,0,0,0,0,0,0,0,-0.0353,-0.0353,-0.0383,-0.0384,-0.0384,-0.0416,-0.0417,-0.0418,-0.0415,-0.0414,-0.0413,-0.0413,-0.0412,-0.0413,-0.0414,0,0,0,0,0,0,0,0,0,0,0,0,0,-0.0376,-0.0354,-0.0383,-0.0385,-0.0385,-0.0416,-0.0417,-0.0418,-0.0415,-0.0414,-0.0413,-0.0412,-0.0412,-0.0413,-0.0414,-0.0439,0,0,-0.0416,-0.0417,0,0,0,0,0,0,0,0,-0.0374,-0.0377,-0.0385,-0.0385,-0.0385,-0.0409,-0.0406,-0.0423,-0.0415,-0.0406,-0.0413,-0.0412,-0.0408,-0.0409,-0.042,-0.0439,-0.0439,-0.0416,-0.0417,-0.0417,-0.0418,0,0,0,0,0,0,0,-0.0373,-0.0376,-0.0398,-0.0385,-0.0385,-0.0396,-0.0398,-0.041,-0.0413,-0.0407,-0.0406,-0.0407,-0.0408,-0.042,-0.042,-0.0439,-0.0416,-0.0417,-0.0418,-0.0418,-0.0459,-0.0459,0,0,0,0,0,0,-0.0364,-0.0374,-0.0397,-0.0399,-0.0375,-0.0397,-0.04,-0.0404,-0.0413,-0.0414,-0.0408,-0.0407,-0.0418,-0.0419,-0.042,-0.0378,-0.0417,-0.0418,-0.0419,-0.0458,-0.0459,-0.046,0,0,0,0,0,0,-0.0364,-0.0366,-0.0396,-0.0386,-0.039,-0.0398,-0.0404,-0.0405,-0.0405,-0.0414,-0.0414,-0.0405,-0.0418,-0.0419,-0.0416,-0.038,-0.0419,-0.042,-0.0458,-0.0459,-0.0459,-0.0339,0,0,0,0,0,0,-0.0363,-0.0366,-0.0374,-0.0385,-0.039,-0.0413,-0.0404,-0.0406,-0.0407,-0.0406,-0.0412,-0.0412,-0.0417,-0.0414,-0.0416,-0.0382,-0.042,-0.0457,-0.0458,-0.0459,-0.0343,-0.0336,-0.033,0,0,0,0,0,-0.0362,-0.0375,-0.0374,-0.0377,-0.0398,-0.0413,-0.0417,-0.0421,-0.0408,-0.0416,-0.0408,-0.0411,-0.0423,-0.0415,-0.0418,-0.0382,-0.0457,-0.0458,-0.0459,-0.0346,-0.0337,-0.0331,0,0,0,0,0,0,-0.0361,-0.0376,-0.0375,-0.0391,-0.0399,-0.0412,-0.0428,-0.0417,-0.0419,-0.0405,-0.0412,-0.0411,-0.0398,-0.0424,-0.0415,-0.0406,-0.0443,-0.0445,-0.0356,-0.0349,-0.0343,-0.0308,-0.0421,0,0,0,0,0,-0.0365,-0.038,-0.039,-0.04,-0.0413,-0.0417,-0.0424,-0.041,-0.0411,-0.041,-0.0383,-0.0387,-0.0411,-0.0404,-0.0419,-0.0409,-0.0447,-0.0396,-0.039,-0.0384,-0.0363,-0.0432,-0.0429,-0.0463,-0.0463,-0.0463,0,0,-0.0362,-0.0376,-0.0381,-0.0402,-0.0417,-0.0404,-0.042,-0.0418,-0.0385,-0.041,-0.0345,-0.036,-0.0409,-0.0391,-0.0388,-0.0399,-0.0391,-0.0385,-0.0379,-0.0361,-0.0433,-0.043,-0.0426,-0.0464,-0.0464,-0.0464,0,0,-0.0359,-0.0386,-0.0393,-0.0397,-0.0404,-0.0399,-0.0393,-0.0369,-0.0352,-0.0298,-0.0321,-0.0322,-0.0301,-0.0338,-0.0362,-0.0344,-0.0362,-0.0337,-0.0258,-0.0325,-0.0322,-0.032,-0.0334,-0.0335,-0.0324,-0.0324,-0.0324,0,-0.0353,-0.0358,-0.0396,-0.0394,-0.0382,-0.0389,-0.0362,-0.0357,-0.0308,-0.0296,-0.0258,-0.026,-0.0284,-0.0327,-0.0291,-0.0326,-0.0338,-0.0271,-0.0313,-0.0312,-0.0312,-0.0328,-0.0329,-0.0318,-0.0319,-0.032,-0.032,0,-0.0342,-0.0341,-0.0351,-0.0341,-0.0335,-0.0321,-0.0304,-0.0269,-0.0218,-0.0195,-0.0178,-0.0197,-0.0189,-0.021,-0.0221,-0.0238,-0.0237,-0.03,-0.0319,-0.03,-0.0319,-0.0323,-0.031,-0.0312,-0.0314,-0.0315,0,0,-0.033,-0.0339,-0.0337,-0.032,-0.0297,-0.0287,-0.0245,-0.0223,-0.019,-0.0133,-0.0099,-0.0113,-0.0087,-0.0116,-0.0148,-0.019,-0.0177,-0.0198,-0.0204,-0.0186,-0.0262,-0.0169,-0.0165,-0.0227,-0.0228,-0.0228,-0.0264,0,-0.0305,-0.0288,-0.0285,-0.0235,-0.0225,-0.0208,-0.0159,-0.0132,-0.0099,-0.0059,-0.0108,-0.0062,-0.0071,-0.0021,-0.0073,-0.0173,-0.0183,-0.0157,-0.0305,-0.0308,-0.0209,-0.0167,-0.0231,-0.0267,-0.0268,-0.0268,-0.0269,0,-0.0288,-0.0278,-0.0235,-0.0181,-0.0172,-0.0108,-0.005,0.0002,0.001,0.0049,0.0063,0.0051,0.0023,0.002,-0.0107,-0.0074,-0.0116,-0.0198,-0.0204,-0.0158,-0.0223,-0.0303,-0.0277,-0.0276,-0.0275,-0.0275,-0.0274,0,-0.0275,-0.0237,-0.02,-0.0183,-0.0123,-0.0064,0.0011,0.0052,0.0111,0.0153,0.0206,0.0136,0.016,0.0046,-0.0054,-0.0056,-0.0216,-0.0273,-0.0238,-0.0232,-0.0359,-0.0362,-0.0335,-0.0335,-0.0335,-0.0334,-0.0334,0,-0.0254,-0.023,-0.0175,-0.0153,-0.0061,-0.0001,0.0117,0.0166,0.0256,0.03,0.0309,0.0319,0.0182,0.0079,-0.004,-0.0131,-0.02,-0.0192,-0.0231,-0.0306,-0.0302,-0.036,-0.0362,-0.0336,-0.0335,-0.0335,-0.0335,0,-0.0261,-0.0238,-0.0204,-0.0115,-0.0056,0.0024,0.0226,0.0277,0.0404,0.0461,0.0509,0.0479,0.0366,0.0196,-0.0007,-0.0067,-0.0213,-0.0222,-0.0241,-0.0288,-0.018,-0.0177,-0.0175,-0.0172,-0.0169,-0.0167,-0.0165,0,-0.0265,-0.025,-0.0176,-0.0122,-0.0062,0.0091,0.0179,0.0342,0.0403,0.0526,0.052,0.0509,0.0445,0.0211,0.0059,-0.0138,-0.0158,-0.0176,-0.019,-0.0122,-0.0163,-0.0163,-0.0163,-0.0161,-0.0161,-0.016,-0.0159,0,-0.0272,-0.0262,-0.0239,-0.013,-0.0033,0.0071,0.0233,0.0296,0.0439,0.0539,0.0549,0.0515,0.0393,0.0218,0.0113,-0.0051,-0.015,-0.015,-0.0156,-0.017,-0.0106,-0.0149,-0.0152,-0.015,-0.0152,-0.0152,-0.0153,0,-0.0282,-0.0281,-0.0238,-0.0134,-0.0063,0.0018,0.0126,0.0227,0.0334,0.0478,0.0455,0.0392,0.0374,0.0267,0.0119,0.0026,0.0008,-0.0008,-0.0023,-0.0033,0.0028,0.013,0.0152,0,0,0,0,0,-0.026,-0.0257,-0.0209,-0.0137,-0.0093,-0.0015,0.0115,0.021,0.0332,0.0328,0.043,0.032,0.0247,0.0209,0.0122,0.0142,-0.0033,0.0049,-0.0068,-0.01,-0.0111,-0.0054,0,0,0,0,0,0,-0.0246,-0.0236,-0.023,-0.0174,-0.0122,-0.0054,0.0013,0.011,0.0146,0.0263,0.0184,0.032,0.0183,0.0247,0.0109,0.01,0.003,0.0043,0.0043,-0.0095,-0.0104,-0.0112,-0.0057,0,0,0,0,0]},{"header":{"parameterUnit":"m.s-1","parameterCategory":2,"la1":30.2991,"la2":30.254,"lo1":-89.0895,"lo2":-89.0444,"dy":0.0017,"dx":0.0017,"nx":28,"ny":28,"refTime":"2024-06-12T09:00:00:Z","depth":"4","parameterNumber":3,"parameterNumberName":"V-component_of_CURRENTS"},"data":[0,0,0,0,0,0,0,0,0,0,0,0,0,0,0,0,0,0,0,0,0,0,0,0,0,0,0,0,0,0,0,0,0,0,0,0,0,0,0,0,0,0,0,0,0,0,0,0,0,0,0,0,0,0,0,0,0,0,0.0544,0.0544,0,0.0563,0.0564,0.0564,0.0701,0.0704,0.0708,0.0711,0.0859,0.086,0.0861,0,0,0,0,0,0,0,0,0,0,0,0,0,0.0527,0.0527,0.0544,0.0544,0.0544,0.0563,0.0564,0.0564,0.07,0.0704,0.0709,0.0712,0.0859,0.086,0.0861,0,0,0,0,0,0,0,0,0,0,0,0,0,0.0538,0.0527,0.0544,0.0615,0.0622,0.0563,0.0564,0.0564,0.0699,0.0704,0.071,0.0714,0.0859,0.086,0.0861,0.0765,0,0,0.0865,0.0865,0,0,0,0,0,0,0,0,0.0537,0.0539,0.0605,0.061,0.0618,0.0636,0.0612,0.0638,0.0698,0.0669,0.0711,0.0717,0.0793,0.08,0.0789,0.0772,0.0779,0.0865,0.0865,0.0866,0.0866,0,0,0,0,0,0,0,0.0537,0.0538,0.0551,0.0604,0.0612,0.0613,0.0621,0.0616,0.0704,0.0672,0.0682,0.0684,0.0799,0.0788,0.0794,0.0781,0.0865,0.0866,0.0866,0.0867,0.0845,0.0844,0,0,0,0,0,0,0.0535,0.0537,0.055,0.0551,0.059,0.061,0.0619,0.0624,0.0701,0.0717,0.068,0.069,0.0783,0.0793,0.08,0.0849,0.0866,0.0867,0.0868,0.0846,0.0844,0.0843,0,0,0,0,0,0,0.0534,0.0536,0.0549,0.0546,0.0548,0.0605,0.061,0.0622,0.0713,0.0706,0.0726,0.0771,0.0788,0.0799,0.0874,0.0851,0.0867,0.0868,0.0847,0.0846,0.0844,0.0847,0,0,0,0,0,0,0.0534,0.0535,0.0546,0.0545,0.0548,0.0577,0.0605,0.0618,0.07,0.0717,0.0788,0.0801,0.0793,0.0872,0.0875,0.0853,0.0869,0.0849,0.0847,0.0844,0.0848,0.0845,0.0843,0,0,0,0,0,0.0533,0.053,0.0546,0.0548,0.0558,0.0578,0.0581,0.0637,0.0701,0.0741,0.0794,0.0805,0.0857,0.0874,0.0877,0.0854,0.085,0.0847,0.0845,0.085,0.0846,0.0843,0,0,0,0,0,0,0.0541,0.0543,0.0562,0.0565,0.0598,0.0604,0.0633,0.0683,0.0751,0.0791,0.0814,0.0828,0.0867,0.0865,0.0883,0.0835,0.0843,0.0841,0.0845,0.0842,0.0839,0.0842,0.087,0,0,0,0,0,0.0536,0.0534,0.0555,0.0563,0.0587,0.0628,0.0651,0.0697,0.0744,0.0785,0.0843,0.0863,0.0829,0.0857,0.0844,0.0845,0.0834,0.0822,0.0819,0.0817,0.0817,0.0749,0.074,0.0834,0.0834,0.0834,0,0,0.0543,0.054,0.0545,0.0564,0.0593,0.0639,0.0659,0.0719,0.0766,0.0782,0.0895,0.0874,0.083,0.0815,0.083,0.0836,0.0793,0.0813,0.0812,0.0814,0.0745,0.0736,0.0727,0.0832,0.0832,0.0832,0,0,0.0551,0.0561,0.0575,0.0613,0.0664,0.0677,0.0725,0.0792,0.0839,0.0905,0.0895,0.0882,0.0911,0.0838,0.08,0.0777,0.0778,0.0773,0.0769,0.0702,0.0694,0.0686,0.0706,0.0701,0.0774,0.0774,0.0774,0,0.0563,0.0588,0.0588,0.0632,0.0679,0.072,0.0789,0.0806,0.0898,0.0901,0.0964,0.0905,0.0897,0.0785,0.0772,0.0769,0.0769,0.0789,0.0699,0.0691,0.0683,0.0705,0.0699,0.0773,0.0773,0.0773,0.0773,0,0.0602,0.0641,0.0664,0.0725,0.0769,0.0832,0.0869,0.0926,0.0988,0.0977,0.0951,0.0909,0.0869,0.083,0.0803,0.0705,0.0739,0.0703,0.0712,0.0674,0.07,0.0694,0.0773,0.0773,0.0773,0.0773,0,0,0.0581,0.0672,0.0687,0.0746,0.0839,0.0876,0.0935,0.0955,0.0966,0.0997,0.0982,0.0885,0.0854,0.0807,0.0742,0.0674,0.0634,0.068,0.0676,0.0712,0.0558,0.0513,0.0503,0.0586,0.0584,0.0582,0.0616,0,0.0627,0.0704,0.0755,0.0869,0.0926,0.0988,0.1033,0.1048,0.104,0.1027,0.0911,0.0869,0.0839,0.0811,0.0734,0.0638,0.061,0.0633,0.058,0.058,0.0551,0.0488,0.0574,0.0611,0.0609,0.0608,0.0607,0,0.0666,0.0704,0.0817,0.0931,0.0971,0.1063,0.1118,0.1138,0.1067,0.1057,0.0962,0.0897,0.0775,0.0772,0.0625,0.0648,0.0624,0.0565,0.0564,0.0511,0.0518,0.0642,0.0595,0.0596,0.0597,0.0598,0.0599,0,0.0625,0.0759,0.0846,0.0899,0.1024,0.1111,0.1168,0.1153,0.1108,0.1049,0.1014,0.0885,0.0818,0.0733,0.0637,0.0641,0.0495,0.0485,0.0433,0.0435,0.0471,0.0478,0.0412,0.0412,0.0412,0.0412,0.0412,0,0.0634,0.0705,0.0858,0.0907,0.1031,0.1117,0.1165,0.1201,0.1133,0.1038,0.1015,0.0912,0.0801,0.0701,0.0642,0.0512,0.0511,0.0425,0.0411,0.048,0.0487,0.047,0.0477,0.0413,0.0413,0.0413,0.0412,0,0.0576,0.0665,0.0774,0.0946,0.102,0.1098,0.1176,0.1139,0.1135,0.1013,0.0997,0.0899,0.0781,0.0693,0.0549,0.0507,0.04,0.0375,0.0511,0.0507,0.0407,0.0413,0.0323,0.0321,0.0319,0.0318,0.0317,0,0.0553,0.0594,0.0795,0.087,0.0981,0.1081,0.112,0.1137,0.1055,0.097,0.0889,0.0794,0.0725,0.0514,0.0442,0.036,0.0338,0.0359,0.0326,0.0388,0.0384,0.0393,0.0401,0.0314,0.0314,0.0313,0.0313,0,0.0484,0.057,0.0657,0.0803,0.0914,0.0972,0.1029,0.0953,0.0906,0.0908,0.0757,0.0679,0.0549,0.0434,0.0392,0.0319,0.0369,0.0342,0.0345,0.0313,0.0376,0.0376,0.0386,0.0307,0.0308,0.0308,0.0309,0,0.045,0.0484,0.0594,0.0738,0.0822,0.0848,0.0896,0.0838,0.0767,0.0688,0.0624,0.0552,0.051,0.041,0.0341,0.0289,0.0269,0.0287,0.0293,0.0299,0.0263,0.0338,0.0229,0,0,0,0,0,0.0423,0.0435,0.0515,0.064,0.0705,0.0775,0.0806,0.0813,0.0765,0.064,0.0624,0.0508,0.0398,0.0352,0.0279,0.0305,0.027,0.0225,0.0296,0.0275,0.0282,0.0235,0,0,0,0,0,0,0.0386,0.044,0.0466,0.0504,0.057,0.0619,0.064,0.065,0.0571,0.0548,0.0472,0.0497,0.0374,0.0414,0.027,0.0259,0.03,0.0191,0.019,0.0271,0.0277,0.0283,0.0237,0,0,0,0,0]}]]